Printer-friendly version

IAU Minor Planet Center

Minor Planet Center

MPEC 2009-T07 : 2009 TB

The following Minor Planet Electronic Circular may be linked-to from your own Web pages, but must not otherwise be redistributed electronically.


Read MPEC 2009-T06 Read MPEC 2009-T08


M.P.E.C. 2009-T07                                Issued 2009 Oct. 4, 19:43 UT

     The Minor Planet Electronic Circulars contain information on unusual
         minor planets and routine data on comets.  They are published
   on behalf of Commission 20 of the International Astronomical Union by the
          Minor Planet Center, Smithsonian Astrophysical Observatory,
                          Cambridge, MA 02138, U.S.A.

             Prepared using the Tamkin Foundation Computer Network

                              MPC@CFA.HARVARD.EDU
          URL http://www.cfa.harvard.edu/iau/mpc.html  ISSN 1523-6714

                                    2009 TB

Observations:
     K09T00B* C2009 10 02.20610 01 16 24.99 +29 27 34.7          19.8 V ET007G96
     K09T00B  C2009 10 02.21142 01 16 26.90 +29 28 15.0          19.8 V ET007G96
     K09T00B  C2009 10 02.21692 01 16 28.84 +29 28 55.7          19.8 V ET007G96
     K09T00B  C2009 10 02.22222 01 16 30.64 +29 29 34.1          20.0 V ET007G96
     K09T00B  C2009 10 02.25490 01 16 40.40 +29 33 15.2          20.3 V ET007G96
     K09T00B  C2009 10 02.26253 01 16 42.42 +29 34 02.7          19.6 V ET007G96
     K09T00B  C2009 10 02.27004 01 16 44.29 +29 34 47.6          20.1 V ET007G96
     K09T00B  C2009 10 02.27777 01 16 46.16 +29 35 33.2          20.2 V ET007G96
     K09T00B  C2009 10 02.29049 01 16 49.08 +29 36 44.3          20.2 V ET007G96
     K09T00B  C2009 10 02.29806 01 16 50.73 +29 37 24.8          20.1 V ET007G96
     K09T00B  C2009 10 02.30553 01 16 52.42 +29 38 03.6          19.6 V ET007G96
     K09T00B  C2009 10 02.31312 01 16 53.90 +29 38 41.1          20.4 V ET007G96

Observer details:
G96 Mt. Lemmon Survey.  Observer A. D. Grauer.  Measurers E. C. Beshore,
    A. Boattini, G. J. Garradd, A. R. Gibbs, A. D. Grauer, R. E. Hill,
    R. A. Kowalski, S. M. Larson, R. H. McNaught.  1.5-m reflector + CCD.

Orbital elements:
2009 TB                                                  Earth MOID = 0.0005 AU
Epoch 2010 Jan. 4.0 TT = JDT 2455200.5                  MPC
M  63.53915              (2000.0)            P               Q
n   0.48579775     Peri.  314.73622     +0.79189047     +0.61051132
a   1.6026267      Node     7.67273     -0.52749879     +0.69510914
e   0.4307374      Incl.    5.85347     -0.30765974     +0.37960401
P   2.03           H   29.2           G   0.15           U   7
Residuals in seconds of arc
091002 G96  0.5+  0.5-    091002 G96  0.3-  0.6+    091002 G96  0.2-  0.1-
091002 G96  0.0   0.1-    091002 G96  0.2-  0.5+    091002 G96  0.2-  0.1-
091002 G96  0.0   0.1+    091002 G96  0.4-  0.1-    091002 G96  1.2+  0.1+
091002 G96  0.0   0.2+    091002 G96  0.3-  0.1+    091002 G96  0.0   0.3-

Ephemeris:
2009 TB                  a,e,i = 1.60, 0.43, 6                   q = 0.9123
Date    TT    R. A. (2000) Decl.     Delta      r     Elong.  Phase     V
2009 09 26    13 23.89   -30 26.8    0.0285   0.979    34.0   145.0    29.0
2009 09 27    13 25.19   -30 36.8    0.0226   0.984    33.6   145.7    28.6
2009 09 28    13 27.29   -30 51.9    0.0168   0.988    33.3   146.2    28.1
2009 09 29    13 30.78   -31 15.7    0.0109   0.993    33.2   146.4    27.2

2009 09 30.0  13 54.76   -33 41.4    0.00459  0.998    37.4   142.5    24.7
2009 09 30.1  13 55.25   -33 44.1    0.00412  0.998    37.4   142.5    24.5
2009 09 30.2  13 45.68   -32 49.4    0.00426  0.998    35.4   144.5    24.8
2009 09 30.3  13 47.85   -33 02.2    0.00383  0.998    35.7   144.1    24.6
2009 09 30.4  14 07.19   -34 47.2    0.00292  0.999    39.6   140.3    23.4
2009 09 30.5  14 30.76   -36 34.6    0.00220  1.000    44.1   135.8    22.2
2009 09 30.6  15 00.67   -38 20.2    0.00161  1.000    49.7   130.2    21.0
2009 09 30.7  15 24.51   -39 21.2    0.00119  1.001    54.1   125.9    19.9
2009 09 30.8  17 00.88   -40 14.2    0.00072  1.001    71.5   108.4    17.6
2009 09 30.9  21 11.34   -15 56.7    0.00054  1.002   127.7    52.2    14.8
2009 10 01.0  23 19.38   +10 27.0    0.00091  1.002   161.3    18.7    15.0

2009 10 01.5  00 57.69   +27 13.9    0.00370  1.004   155.2    24.7    18.2

2009 10 02    01 12.57   +29 08.9    0.00660  1.007   152.6    27.2    19.5
2009 10 03    01 21.71   +30 14.2    0.0124   1.012   151.5    28.2    20.9
2009 10 04    01 25.06   +30 36.7    0.0182   1.016   151.6    28.0    21.8
2009 10 05    01 26.77   +30 47.3    0.0240   1.021   151.9    27.4    22.4
2009 10 06    01 27.78   +30 53.0    0.0298   1.026   152.4    26.8    22.8

Sonia Keys                   (C) Copyright 2009 MPC           M.P.E.C. 2009-T07

Read MPEC 2009-T06 Read MPEC 2009-T08

Valid HTML 4.01!